Location: Dana
(41.8364°N, 106.7042°W)
Time: 11:09:57
(UTC+00:00)

Injun/Solrad 3 - Pass Details

Date: 10 May 2026
Orbit: 867 x 989 km, 66.8° (Epoch: 11 June)

Event Time Altitude Azimuth Distance (km) Brightness Sun altitude
Rises 23:15:21 0° 198° (SSW) 3,486 11.2 31.7°
Reaches altitude 10° 23:17:48 10° 195° (SSW) 2,565 10.5 31.3°
Maximum altitude 23:23:41 65° 115° (ESE) 1,010 8.3 30.2°
Drops below altitude 10° 23:29:48 10° 36° (NE) 2,666 10.1 29.0°
Sets 23:32:25 0° 33° (NNE) 3,632 10.7 28.6°
